IRIDIUM 106 1 41917U 17003A 25341.23206241 -.00000006 00000+0 -91608-5 0 9994 2 41917 86.3991 168.7534 0002036 101.7528 258.3896 14.34218611465691 IRIDIUM 103 1 41918U 17003B 25341.28914047 .00000116 00000+0 34439-4 0 9998 2 41918 86.3988 168.6303 0001572 90.4187 269.7189 14.34219052465725 IRIDIUM 109 1 41919U 17003C 25341.22573860 .00000073 00000+0 19111-4 0 9999 2 41919 86.3989 168.7131 0001879 89.3520 270.7891 14.34218385465680 IRIDIUM 102 1 41920U 17003D 25341.26377100 .00000455 00000+0 15554-3 0 9994 2 41920 86.3987 168.6250 0002043 86.2624 273.8805 14.34216711465776 IRIDIUM 105 1 41921U 17003E 25341.16474188 .00000479 00000+0 16388-3 0 9990 2 41921 86.3973 137.1600 0001868 93.0639 267.0771 14.34217925467618 IRIDIUM 104 1 41922U 17003F 25340.99738525 .00000154 00000+0 47808-4 0 9991 2 41922 86.3989 168.7758 0001753 80.4081 279.7313 14.34218994465723 IRIDIUM 114 1 41923U 17003G 25341.28278803 .00000105 00000+0 30518-4 0 9999 2 41923 86.3988 168.6405 0001795 86.4003 273.7398 14.34217536465747 IRIDIUM 108 1 41924U 17003H 25341.17155516 .00000012 00000+0 -26677-5 0 9993 2 41924 86.3968 137.0475 0002128 91.3293 268.8147 14.34217813467589 IRIDIUM 112 1 41925U 17003J 25341.27011476 -.00000020 00000+0 -14212-4 0 9992 2 41925 86.3990 168.4968 0001821 83.6984 276.4419 14.34217169465769 IRIDIUM 111 1 41926U 17003K 25341.25743271 -.00000088 00000+0 -38554-4 0 9995 2 41926 86.3991 168.5683 0001797 91.0830 269.0572 14.34217999465748 IRIDIUM 113 1 42803U 17039A 25340.88855359 .00000009 00000+0 -39407-5 0 9999 2 42803 86.3983 42.5416 0001969 94.1456 265.9965 14.34217908443622 IRIDIUM 123 1 42804U 17039B 25341.13933763 .00000073 00000+0 18874-4 0 9999 2 42804 86.3968 73.9206 0001905 104.9710 255.1697 14.34218453442420 IRIDIUM 120 1 42805U 17039C 25340.88221168 .00000348 00000+0 11704-3 0 9999 2 42805 86.3957 42.3523 0002362 104.6298 255.5160 14.34216140443619 IRIDIUM 115 1 42806U 17039D 25341.14147718 .00000681 00000+0 19635-3 0 9999 2 42806 86.4505 42.3453 0002249 109.1531 250.9914 14.43280072446564 IRIDIUM 118 1 42807U 17039E 25341.17104520 .00000556 00000+0 19128-3 0 9995 2 42807 86.3969 73.9063 0001926 95.4578 264.6838 14.34224278442428 IRIDIUM 117 1 42808U 17039F 25341.25984604 .00000178 00000+0 56490-4 0 9998 2 42808 86.3968 73.8287 0001926 101.7235 258.4177 14.34219352442464 IRIDIUM 126 1 42809U 17039G 25341.14567772 .00000206 00000+0 66326-4 0 9991 2 42809 86.3968 73.9243 0001877 97.6706 262.4703 14.34217918442421 IRIDIUM 124 1 42810U 17039H 25341.00597665 .00000663 00000+0 19122-3 0 9990 2 42810 86.4492 10.7049 0002167 97.5833 262.5614 14.43284982447390 IRIDIUM 128 1 42811U 17039J 25341.20618533 .00000299 00000+0 99737-4 0 9997 2 42811 86.3961 105.4325 0002272 103.0696 257.0754 14.34220218442466 IRIDIUM 121 1 42812U 17039K 25341.23447942 .00000395 00000+0 13390-3 0 9992 2 42812 86.3976 73.9133 0002188 95.5679 264.5767 14.34216579442317 IRIDIUM 133 1 42955U 17061A 25341.30766976 .00000032 00000+0 43687-5 0 9996 2 42955 86.3960 105.5026 0002008 97.8371 262.3053 14.34217622427278 IRIDIUM 100 1 42956U 17061B 25341.23155333 .00000583 00000+0 20094-3 0 9994 2 42956 86.3960 105.4580 0001937 97.6226 262.5190 14.34220433427267 IRIDIUM 122 1 42957U 17061C 25341.06030846 .00000050 00000+0 10648-4 0 9991 2 42957 86.3960 105.5295 0001908 96.8166 263.3247 14.34217477427248 IRIDIUM 129 1 42958U 17061D 25341.29498207 .00000240 00000+0 78688-4 0 9995 2 42958 86.3961 105.4960 0001903 84.3524 275.7889 14.34218981427298 IRIDIUM 119 1 42959U 17061E 25341.05396480 .00000545 00000+0 18746-3 0 9996 2 42959 86.3961 105.5917 0001747 92.2704 267.8692 14.34221708427279 IRIDIUM 107 1 42960U 17061F 25341.28229838 .00000009 00000+0 -39865-5 0 9998 2 42960 86.3963 105.5164 0001634 108.5169 251.6204 14.34217678427314 IRIDIUM 132 1 42961U 17061G 25341.07933513 .00000123 00000+0 36929-4 0 9991 2 42961 86.3962 105.5822 0001938 98.3772 261.7644 14.34218539427281 IRIDIUM 136 1 42962U 17061H 25341.32035415 -.00000002 00000+0 -77471-5 0 9990 2 42962 86.3962 105.4873 0001696 94.2067 265.9322 14.34217490427330 IRIDIUM 139 1 42963U 17061J 25341.04762383 .00000568 00000+0 19571-3 0 9991 2 42963 86.3963 105.6600 0001950 99.3008 260.8408 14.34216723427300 IRIDIUM 125 1 42964U 17061K 25341.31400527 .00000569 00000+0 19601-3 0 9996 2 42964 86.3965 105.6062 0001420 104.0403 256.0951 14.34220034427355 IRIDIUM 135 1 43070U 17083A 25341.14859986 .00000308 00000+0 10289-3 0 9991 2 43070 86.3976 42.2818 0002225 94.1865 265.9585 14.34219400416621 IRIDIUM 138 1 43071U 17083B 25341.17397150 .00000395 00000+0 13412-3 0 9992 2 43071 86.3990 41.9370 0001785 87.7833 272.3567 14.34217863416612 IRIDIUM 116 1 43072U 17083C 25341.14225868 .00000355 00000+0 11952-3 0 9999 2 43072 86.3968 42.2726 0002466 100.2894 259.8581 14.34217796416646 IRIDIUM 130 1 43073U 17083D 25341.11054272 .00000440 00000+0 15021-3 0 9992 2 43073 86.3977 42.5423 0002229 103.0948 257.0497 14.34213029416586 IRIDIUM 151 1 43074U 17083E 25340.87586825 .00000383 00000+0 12956-3 0 9999 2 43074 86.3973 42.4372 0002000 93.9724 266.1700 14.34217556416577 IRIDIUM 134 1 43075U 17083F 25341.19298753 .00000488 00000+0 16728-3 0 9993 2 43075 86.3973 42.3102 0002194 102.4230 257.7211 14.34223599416588 IRIDIUM 137 1 43076U 17083G 25341.13591722 .00000398 00000+0 13521-3 0 9998 2 43076 86.3969 42.4235 0002685 94.5735 265.5767 14.34217788416641 IRIDIUM 141 1 43077U 17083H 25341.12957197 .00000120 00000+0 35834-4 0 9995 2 43077 86.3971 42.2671 0002033 95.4595 264.6833 14.34218901416640 IRIDIUM 153 1 43078U 17083J 25341.08175999 .00000517 00000+0 17737-3 0 9994 2 43078 86.3976 10.7781 0001826 92.1995 267.9410 14.34221462417740 IRIDIUM 131 1 43079U 17083K 25341.11688830 .00000043 00000+0 82807-5 0 9998 2 43079 86.3976 42.4456 0002060 94.2557 265.8874 14.34217894416575 IRIDIUM 144 1 43249U 18030A 25341.22763232 .00000343 00000+0 11557-3 0 9997 2 43249 86.3969 10.6504 0002297 96.9359 263.2098 14.34217027402627 IRIDIUM 149 1 43250U 18030B 25341.09443591 .00000268 00000+0 88737-4 0 9998 2 43250 86.3965 10.6755 0002184 94.0660 266.0786 14.34216248402621 IRIDIUM 157 1 43251U 18030C 25341.32276691 .00000259 00000+0 85501-4 0 9996 2 43251 86.3972 10.6288 0002293 88.9527 271.1931 14.34220315402636 IRIDIUM 140 1 43252U 18030D 25341.06272498 .00000372 00000+0 12582-3 0 9993 2 43252 86.3966 10.7501 0002255 98.1319 262.0133 14.34216988402655 IRIDIUM 145 1 43253U 18030E 25341.32911365 .00000130 00000+0 39277-4 0 9999 2 43253 86.3967 10.6129 0002282 96.3194 263.8262 14.34215238402629 IRIDIUM 146 1 43254U 18030F 25341.10077921 .00000050 00000+0 10895-4 0 9993 2 43254 86.3973 10.7204 0002285 97.0615 263.0841 14.34218232402601 IRIDIUM 148 1 43255U 18030G 25341.06906588 .00000260 00000+0 85606-4 0 9994 2 43255 86.3972 10.7736 0002148 90.1938 269.9504 14.34217652402630 IRIDIUM 142 1 43256U 18030H 25341.03735445 .00000274 00000+0 90847-4 0 9992 2 43256 86.3969 10.6825 0002479 101.4661 258.6813 14.34216574402596 IRIDIUM 150 1 43257U 18030J 25341.00563777 .00000187 00000+0 59570-4 0 9998 2 43257 86.3976 10.8060 0002308 96.9675 263.1784 14.34219891402618 IRIDIUM 143 1 43258U 18030K 25341.33545277 .00000293 00000+0 97407-4 0 9999 2 43258 86.3976 10.7534 0002453 99.5799 260.5674 14.34220559402590 IRIDIUM 161 1 43478U 18047C 25340.98390117 .00000226 00000+0 61154-4 0 9998 2 43478 86.4509 168.7839 0001969 82.5254 277.6171 14.43277214397413 IRIDIUM 152 1 43479U 18047D 25341.23840510 .00000161 00000+0 50543-4 0 9993 2 43479 86.3983 168.5381 0001848 86.8031 273.3376 14.34218615394973 IRIDIUM 147 1 43480U 18047E 25341.24474413 .00000014 00000+0 -21564-5 0 9991 2 43480 86.3985 168.5374 0002076 85.9997 274.1436 14.34217615394979 IRIDIUM 110 1 43481U 18047F 25341.25108562 .00000173 00000+0 54732-4 0 9999 2 43481 86.3987 168.6213 0001799 74.4532 285.6862 14.34218644394966 IRIDIUM 162 1 43482U 18047G 25341.25492560 .00000138 00000+0 34952-4 0 9997 2 43482 86.4508 168.5642 0001675 92.2011 267.9382 14.43282587397448 IRIDIUM 160 1 43569U 18061A 25341.26669393 .00000248 00000+0 81417-4 0 9990 2 43569 86.3971 137.0382 0001949 84.9534 275.1884 14.34217197385867 IRIDIUM 166 1 43570U 18061B 25341.15252072 .00000215 00000+0 69753-4 0 9995 2 43570 86.3970 137.0390 0002170 94.2327 265.9117 14.34219929385870 IRIDIUM 158 1 43571U 18061C 25341.19058011 .00000416 00000+0 14148-3 0 9997 2 43571 86.3971 137.0330 0001724 93.1901 266.9492 14.34216427385840 IRIDIUM 165 1 43572U 18061D 25341.28571814 .00000147 00000+0 45249-4 0 9997 2 43572 86.3972 137.0360 0002102 92.1908 267.9529 14.34219625385881 IRIDIUM 155 1 43573U 18061E 25341.17789466 .00000534 00000+0 18376-3 0 9990 2 43573 86.3967 136.9597 0001888 98.4155 261.7255 14.34219869385832 IRIDIUM 154 1 43574U 18061F 25341.29842255 .00000518 00000+0 17781-3 0 9991 2 43574 86.3971 137.0332 0002040 91.7760 268.3670 14.34217731385904 IRIDIUM 163 1 43575U 18061G 25341.13984419 .00000378 00000+0 12792-3 0 9995 2 43575 86.3972 137.0204 0001853 88.4881 271.6527 14.34219601385852 IRIDIUM 156 1 43576U 18061H 25341.18423812 -.00000006 00000+0 -90882-5 0 9994 2 43576 86.3971 137.0095 0001902 100.4441 259.6969 14.34218514385850 IRIDIUM 164 1 43577U 18061J 25341.16522019 .00000457 00000+0 15598-3 0 9999 2 43577 86.3970 137.0546 0002173 92.7679 267.3765 14.34222464385891 IRIDIUM 159 1 43578U 18061K 25341.20326398 .00000458 00000+0 15644-3 0 9990 2 43578 86.3977 136.9796 0001992 87.3806 272.7618 14.34219694385869 IRIDIUM 180 1 43922U 19002A 25341.27253340 .00000284 00000+0 94232-4 0 9990 2 43922 86.3965 73.8268 0002004 92.7699 267.3727 14.34216524361489 IRIDIUM 176 1 43923U 19002B 25341.15020910 .00001851 00000+0 28950-3 0 9997 2 43923 86.6088 73.8491 0002186 99.2643 260.8822 14.72262057370993 IRIDIUM 168 1 43924U 19002C 25341.26618959 .00000076 00000+0 20025-4 0 9990 2 43924 86.3971 73.9012 0001992 96.1270 264.0153 14.34218533361461 IRIDIUM 173 1 43925U 19002D 25340.97442796 .00000547 00000+0 18813-3 0 9996 2 43925 86.3965 73.9198 0001884 99.6050 260.5359 14.34216382361407 IRIDIUM 169 1 43926U 19002E 25341.20875788 .00000723 00000+0 22975-3 0 9995 2 43926 86.4217 105.4725 0001554 129.7147 230.4188 14.38613616362628 IRIDIUM 172 1 43927U 19002F 25341.17739305 .00000212 00000+0 68653-4 0 9993 2 43927 86.3964 73.8423 0001988 91.4196 268.7227 14.34215724361441 IRIDIUM 175 1 43928U 19002G 25341.28141714 .00001697 00000+0 26524-3 0 9995 2 43928 86.1506 16.5089 0003105 98.5528 261.6041 14.72246194371000 IRIDIUM 171 1 43929U 19002H 25341.22813608 .00000049 00000+0 10388-4 0 9990 2 43929 86.3975 74.1064 0002213 102.2279 257.9165 14.34217567361443 IRIDIUM 170 1 43930U 19002J 25341.15639922 .00001072 00000+0 16617-3 0 9996 2 43930 86.6086 73.8504 0002231 91.7696 268.3777 14.72242390371003 IRIDIUM 167 1 43931U 19002K 25341.15202425 .00000218 00000+0 70604-4 0 9999 2 43931 86.3967 73.8739 0002211 107.2236 252.9202 14.34216740361436 IRIDIUM 181 1 56726U 23068S 25340.92538226 .00000513 00000+0 14633-3 0 9994 2 56726 86.4509 137.1539 0002604 88.1609 271.9890 14.43316837134704 IRIDIUM 177 1 56727U 23068T 25341.19882853 .00002789 00000+0 36354-3 0 9994 2 56727 86.1971 59.9615 0002324 85.7216 274.4271 14.80234283137964 IRIDIUM 174 1 56728U 23068U 25341.14403742 .00001497 00000+0 23344-3 0 9996 2 56728 86.6091 73.9836 0002240 86.7850 273.3623 14.72249454137760 IRIDIUM 178 1 56729U 23068V 25341.32311832 .00003005 00000+0 39205-3 0 9995 2 56729 86.6535 105.5619 0002368 100.6620 259.4869 14.80222489137986 IRIDIUM 179 1 56730U 23068W 25341.31773531 .00003529 00000+0 46104-3 0 9991 2 56730 86.6776 113.9706 0002544 94.2985 265.8528 14.80221980137981